TimeCST,TemperatureF,Dew PointF,Humidity,Sea Level PressureIn,VisibilityMPH,Wind Direction,Wind SpeedMPH,Gust SpeedMPH,PrecipitationIn,Events,Conditions,WindDirDegrees,DateUTC
12:52 AM,28.0,26.1,92,29.97,4.0,SE,5.8,-,N/A,,Clear,130,2012-12-01 06:52:00
1:52 AM,30.0,28.0,92,29.95,4.0,SE,6.9,-,N/A,,Clear,130,2012-12-01 07:52:00
2:52 AM,30.0,28.0,92,29.92,4.0,SE,5.8,-,N/A,,Clear,130,2012-12-01 08:52:00
3:52 AM,33.1,30.0,89,29.89,5.0,SE,8.1,-,N/A,,Clear,140,2012-12-01 09:52:00
4:52 AM,34.0,30.9,89,29.88,6.0,SE,8.1,-,N/A,,Clear,140,2012-12-01 10:52:00
5:52 AM,33.8,30.2,87,29.83,5.0,SE,10.4,-,N/A,,Clear,130,2012-12-01 11:52:00
6:14 AM,35.6,32.0,87,29.82,5.0,SE,11.5,-,N/A,,Mostly Cloudy,140,2012-12-01 12:14:00
6:28 AM,35.6,33.8,93,29.83,5.0,SE,8.1,-,N/A,,Overcast,140,2012-12-01 12:28:00
6:48 AM,37.4,35.6,93,29.82,4.0,SE,8.1,-,N/A,,Overcast,130,2012-12-01 12:48:00
6:52 AM,37.9,36.0,93,29.86,3.0,ESE,8.1,-,N/A,,Overcast,120,2012-12-01 12:52:00
7:17 AM,37.4,37.4,100,29.83,2.5,ESE,6.9,-,N/A,,Overcast,110,2012-12-01 13:17:00
7:52 AM,42.1,41.0,96,29.86,0.5,SSW,9.2,-,N/A,,Overcast,200,2012-12-01 13:52:00
8:52 AM,41.0,39.9,96,29.86,0.5,SSE,9.2,-,N/A,,Overcast,150,2012-12-01 14:52:00
9:18 AM,42.8,42.8,100,29.82,0.5,SSE,11.5,-,N/A,,Overcast,160,2012-12-01 15:18:00
9:52 AM,46.0,43.0,89,29.87,0.5,SSW,10.4,-,N/A,,Overcast,200,2012-12-01 15:52:00
10:02 AM,46.4,42.8,87,29.84,6.0,South,9.2,-,N/A,,Overcast,190,2012-12-01 16:02:00
10:52 AM,46.9,44.1,90,29.84,7.0,SSW,6.9,-,N/A,,Overcast,210,2012-12-01 16:52:00
11:52 AM,48.0,45.0,89,29.80,5.0,South,10.4,-,N/A,,Mostly Cloudy,180,2012-12-01 17:52:00
12:01 PM,48.2,44.6,87,29.78,8.0,South,9.2,-,N/A,,Scattered Clouds,190,2012-12-01 18:01:00
12:52 PM,50.0,45.0,83,29.77,10.0,South,9.2,-,0.01,,Clear,170,2012-12-01 18:52:00
1:52 PM,54.0,46.0,75,29.78,10.0,SW,10.4,-,N/A,,Clear,230,2012-12-01 19:52:00
2:52 PM,55.0,45.0,69,29.77,10.0,SSW,11.5,-,N/A,,Clear,210,2012-12-01 20:52:00
3:52 PM,55.0,44.1,67,29.77,10.0,South,6.9,-,N/A,,Clear,180,2012-12-01 21:52:00
4:52 PM,48.9,41.0,74,29.81,10.0,WSW,4.6,-,N/A,,Clear,250,2012-12-01 22:52:00
5:52 PM,46.0,41.0,83,29.82,10.0,South,3.5,-,N/A,,Clear,170,2012-12-01 23:52:00
6:52 PM,39.9,37.0,89,29.83,7.0,ESE,3.5,-,N/A,,Clear,120,2012-12-02 00:52:00
7:52 PM,39.0,37.0,93,29.84,6.0,NE,3.5,-,N/A,,Clear,50,2012-12-02 01:52:00
8:27 PM,37.4,33.8,87,29.83,1.5,Calm,Calm,-,N/A,,Clear,0,2012-12-02 02:27:00
8:36 PM,35.6,33.8,93,29.83,5.0,Calm,Calm,-,N/A,,Partly Cloudy,0,2012-12-02 02:36:00
8:52 PM,36.0,35.1,97,29.86,5.0,Calm,Calm,-,N/A,,Scattered Clouds,0,2012-12-02 02:52:00
8:57 PM,33.8,33.8,100,29.83,1.2,Calm,Calm,-,N/A,,Scattered Clouds,0,2012-12-02 02:57:00
9:01 PM,33.8,33.8,100,29.83,0.2,SE,4.6,-,N/A,Fog,Fog,130,2012-12-02 03:01:00
9:06 PM,35.6,35.6,100,29.83,0.2,ESE,3.5,-,N/A,Fog,Fog,120,2012-12-02 03:06:00
9:42 PM,33.8,33.8,100,29.85,0.2,Calm,Calm,-,N/A,Fog,Fog,0,2012-12-02 03:42:00
9:52 PM,32.0,32.0,100,29.88,0.2,Calm,Calm,-,N/A,Fog,Fog,0,2012-12-02 03:52:00
10:10 PM,30.2,30.2,100,29.85,0.2,Calm,Calm,-,N/A,Fog,Light Freezing Fog,0,2012-12-02 04:10:00
10:23 PM,28.4,26.6,93,29.85,0.2,Calm,Calm,-,N/A,Fog,Light Freezing Fog,0,2012-12-02 04:23:00
10:52 PM,30.9,30.9,100,29.88,0.2,Calm,Calm,-,N/A,Fog,Light Freezing Fog,0,2012-12-02 04:52:00
11:02 PM,30.2,30.2,100,29.86,0.5,Calm,Calm,-,N/A,Fog,Light Freezing Fog,0,2012-12-02 05:02:00
11:09 PM,30.2,30.2,100,29.87,0.2,NNW,3.5,-,N/A,Fog,Light Freezing Fog,340,2012-12-02 05:09:00
11:18 PM,30.2,28.4,93,29.87,0.2,NNW,3.5,-,N/A,Fog,Light Freezing Fog,330,2012-12-02 05:18:00
11:28 PM,30.2,30.2,100,29.87,0.2,NW,5.8,-,N/A,Fog,Light Freezing Fog,320,2012-12-02 05:28:00
11:41 PM,30.2,28.4,93,29.87,0.8,NW,3.5,-,N/A,,Mist,310,2012-12-02 05:41:00
11:43 PM,30.2,30.2,100,29.87,1.2,WNW,3.5,-,N/A,,Scattered Clouds,300,2012-12-02 05:43:00
11:48 PM,28.4,28.4,100,29.87,0.8,Calm,Calm,-,N/A,,Mist,0,2012-12-02 05:48:00
11:52 PM,28.9,28.0,96,29.90,0.5,WNW,3.5,-,N/A,Fog,Light Freezing Fog,300,2012-12-02 05:52:00
11:55 PM,28.4,28.4,100,29.88,0.2,NW,3.5,-,N/A,Fog,Light Freezing Fog,320,2012-12-02 05:55:00